Location: Newport
(44.6370°N, 124.0520°W)
Time: 10:20:50
(UTC-07:00)

ISS - Pass Details

Date: 12 October 2017
Orbit: 400 x 408 km, 51.6° (Epoch: 24 October)

Event Time Altitude Azimuth Distance (km) Brightness Sun altitude
Rises 19:38:26 0° 300° (WNW) 2,327 1.2 -11.9°
Reaches altitude 10° 19:40:31 10° 301° (WNW) 1,466 0.0 -12.2°
Maximum altitude 19:43:49 86° 32° (NNE) 412 -3.9 -12.8°
Enters shadow 19:45:48 22° 119° (ESE) 949 -2.5 -13.2°
